Location: Eastchurch
(51.4000°N, 0.8667°E)
Time: 20:37:21
(UTC+00:00)

Cosmos 1153 Rocket - Pass Details

Date: 19 January 2026
Orbit: 952 x 1006 km, 82.9° (Epoch: 16 February)

Event Time Altitude Azimuth Distance (km) Brightness Sun altitude
Rises 19:23:54 0° 350° (N) 3,730 7.7 -27.5°
Reaches altitude 10° 19:26:27 10° 351° (N) 2,770 7.0 -27.9°
Maximum altitude 19:32:50 83° 80° (E) 997 4.3 -28.9°
Enters shadow 19:32:58 83° 107° (ESE) 998 4.3 -28.9°
